Torna al catalogo

METEOR 2-11

AttivoMeteoPO
NORAD 15099·PAYLOAD·🇷🇺 Russia

Lanciato Jul 5, 1984 da Plesetsk Cosmodrome

Loading…

Prossimi Passaggi (prossime 24 ore)

TLE

AggiornatoSource: Space-Track

Epoca: Sep 14, 2026, 04:13 UTC

1 15099U 84072A   26257.17580135  .00000067  00000-0  45911-4 0  9994
2 15099  82.5336 328.2022 0012814 194.2566 165.8235 13.85307939132667

Traccia METEOR 2-11 in tempo reale con AllMySat

Download on the App Store